Location: Cortada del Guayabo
(10.3526°N, 66.9051°W)
Time: 05:16:21
(UTC+00:00)

Daily predictions for brighter satellites

Satellite Brightness Start Highest point End
(mag) Time Altitude Azimuth Time Altitude Azimuth Time Altitude Azimuth
DELTA 2 R/B (1) 4.0 00:01:10 10° WNW 00:06:36 58° SW 00:07:33 51° S
Cosmos 2237 4.5 00:09:52 10° SSW 00:15:31 63° WNW 00:15:31 63° WNW
Atlas Centaur 2 4.0 00:21:38 10° SW 00:22:20 15° SW 00:22:20 15° SW
SEDSat Delta rocket 4.3 00:21:09 10° SW 00:26:11 58° SW 00:26:11 58° SW
Resurs 01 Rocket 4.0 00:27:07 10° SSW 00:28:31 18° SSW 00:28:31 18° SSW
VEP-3 3.7 00:31:39 10° WNW 00:37:34 66° SSW 00:56:54 10° ESE
SL-16 R/B 3.7 00:32:34 10° SSW 00:35:18 30° SSW 00:35:18 30° SSW
BLOCK DM-SL R/B 4.3 00:30:15 10° W 00:49:54 38° SSW 00:50:11 38° SSW
Cosmos 2297 Rocket 4.3 00:52:47 10° NW 00:57:28 23° WSW 01:01:30 10° SSW
USA 59 Rocket 3.1 01:03:34 10° SW 01:05:11 17° SW 01:05:11 17° SW
ATLAS 2AS CENTAUR RB 4.4 00:58:23 10° WSW 01:23:09 41° SSW 01:23:09 41° SSW
CENTAUR R/B 4.4 07:40:16 33° S 07:40:16 33° S 07:44:50 10° S
SL-16 R/B 4.4 07:33:05 10° ESE 07:37:47 23° ENE 07:38:37 22° ENE
CZ-3 R/B 4.3 07:40:02 43° NNW 07:41:04 43° N 07:52:11 10° ENE
Chandra Rocket (1) 4.4 08:03:20 23° ENE 08:03:20 23° ENE 08:07:51 10° E
Skynet4D Del rocket 4.4 08:07:53 85° ENE 08:07:53 85° ENE 08:15:27 10° ESE
Cosmos 1464 Rocket 4.3 08:09:20 60° SE 08:09:20 60° SE 08:14:33 10° S
ATLAS 2AS CENTAUR RB 2.9 08:16:34 75° NNW 08:16:53 77° N 08:43:02 10° E
Ariane H10+ 4.4 08:14:01 19° SSW 08:16:54 24° S 08:25:19 10° ESE
NOSS 3-2 (A) 4.3 08:21:28 60° W 08:21:56 61° WSW 08:31:10 10° S
Cosmos 2034 Rocket 4.0 08:32:03 36° N 08:34:46 77° E 08:41:02 10° S
Cosmos 2228 4.4 08:46:26 15° NNE 08:49:24 36° E 08:53:13 10° SSE
DASH 4.1 08:58:06 19° SSW 08:58:06 19° SSW 08:59:30 10° SSE
Centaur AC-119 3.4 08:56:00 27° SW 08:59:48 77° SSE 09:05:42 10° ENE
UNK 4.1 08:57:04 10° SSE 09:01:35 62° ENE 09:05:18 15° N
Hubble Space Telescope 2.5 09:04:38 19° SSW 09:04:38 19° SSW 09:07:08 10° SSE
Cosmos 1356 Rocket 3.1 09:04:53 55° NNW 09:05:41 78° W 09:09:38 10° S
Meteor 2-12 Rocket 4.4 08:59:47 10° SSW 09:05:48 58° W 09:11:48 10° N
COSMOS 2406 3.5 09:05:55 10° S 09:11:34 69° ESE 09:17:10 10° NNE
GPS 2-12 Rocket1 4.4 09:12:02 23° N 09:12:44 24° N 09:16:25 10° ENE
Cosmos 1315 Rocket 2.8 09:13:57 49° W 09:14:02 49° W 09:17:40 10° S
Cosmos 1697 Rocket 4.1 09:10:20 10° N 09:15:27 36° ENE 09:20:35 10° SE
EPKM 4.4 09:18:14 16° NNW 09:18:14 16° NNW 09:19:36 10° NNE
Cosmos 1461 2.4 09:16:54 45° NW 09:17:52 70° WSW 09:21:26 10° SSE
ARIANE 3 DEB 3.2 09:17:15 29° SSW 09:18:08 36° S 09:21:34 10° ESE
IRS-1D 3.4 09:13:13 10° N 09:18:16 78° WNW 09:23:26 10° SSW
NOAA 12 4.0 09:15:06 10° NNE 09:20:22 89° W 09:25:36 10° SSW
SL-16 R/B 3.2 09:15:29 10° SSW 09:20:59 33° WSW 09:23:41 24° WNW
SEDSat Delta rocket 4.0 09:20:30 23° NNW 09:23:09 42° NNE 09:27:25 10° E
Cosmos 1777 Rocket 4.2 09:20:00 10° N 09:25:08 71° ENE 09:30:16 10° SSE
Cosmos 1455 Rocket 4.2 09:28:35 23° W 09:28:35 23° W 09:31:54 10° SW
Cosmos 2082 Rocket 2.9 09:26:15 10° SW 09:31:08 30° WNW 09:36:01 10° NNW
BREEZE-M DEB (TANK) 2.1 09:29:08 10° SSW 09:31:33 73° SE 09:36:16 10° NE
Palapa 6 Rocket 4.3 09:27:46 21° WNW 09:32:55 80° NNE 09:40:41 10° ESE
GOES 2 Rocket 3.4 09:29:40 22° WNW 09:33:24 84° SSW 09:38:04 10° ESE
Atlas Centaur 2 3.4 09:27:35 17° NW 09:33:48 56° NNE 09:41:43 10° ESE
OAO 2 Rocket 3.4 09:30:42 13° WSW 09:35:15 58° NW 09:40:17 10° NE
Cosmos 1536 Rocket 3.9 09:31:52 10° SSW 09:36:02 41° W 09:40:13 10° NNW
Cosmos 1486 Rocket 4.1 09:31:22 10° NNW 09:36:34 59° WSW 09:41:46 10° S
FUSE 4.1 09:36:39 15° W 09:41:00 58° NNW 09:46:17 10° ENE
Cosmos 1782 2.4 09:41:41 10° N 09:45:11 68° W 09:48:43 10° S
CZ-4 R/B 4.2 09:40:59 10° N 09:45:15 39° WNW 09:49:32 10° SW
Cosmos 2058 4.4 09:42:58 10° WSW 09:44:53 15° W 09:44:53 15° W
Cosmos 1634 Rocket 4.4 09:44:20 10° NNW 09:50:01 39° W 09:55:46 10° SSW
Ariane H10+ 2.0 09:52:31 10° WSW 09:56:16 37° S 09:58:37 10° ESE
GPS 2-15 Rocket1 3.9 09:54:07 10° SW 09:58:32 50° SSE 10:02:57 10° E
ARIANE 5 DEB (SYLDA) 4.2 09:50:04 10° W 10:02:50 56° S 10:06:50 10° ESE
Intelsat 5-2 Rocket 3.3 09:56:26 10° WNW 10:03:42 68° SSW 10:06:43 10° ESE
IGS 5A 3.5 10:01:54 10° NNE 10:05:53 83° E 10:09:53 10° S
Cosmos 2098 Rocket 3.9 10:02:54 10° NNW 10:08:32 53° W 10:13:54 10° SSW
Cosmos 2279 Rocket 4.5 10:05:18 10° NNW 10:11:03 40° W 10:16:48 10° SSW
USA 267 3.5 10:04:51 10° NNE 10:11:04 49° NW 10:17:17 10° SW
Centaur AC-146 3.7 10:43:53 10° WNW 11:09:31 84° SSW 11:13:22 10° ESE
